This is the latest recevied weather packets stored in our database for station/object S57PNX-8. If no packets are shown the sender has not sent any weather packets the latest 10 day(s).
| Time | Temp. | Humidity | Pressure | Rain* | Wind** | Luminosity | Snow |
|---|---|---|---|---|---|---|---|
| 1778254553 | 16.11° C | 71% | 1020.7 hPa | - | - | - | - |
| 1778253648 | 16.67° C | 69% | 1020.8 hPa | - | - | - | - |
| 1778252748 | 17.22° C | 69% | 1020.8 hPa | - | - | - | - |
| 1778252387 | 17.22° C | 69% | 1020.8 hPa | - | - | - | - |
| 1778251848 | 17.22° C | 69% | 1020.8 hPa | - | - | - | - |
| 1778250948 | 17.22° C | 72% | 1020.8 hPa | - | - | - | - |
| 1778250048 | 16.67° C | 75% | 1021 hPa | - | - | - | - |
| 1778249148 | 16.11° C | 79% | 1020.8 hPa | - | - | - | - |
| 1778248247 | 16.11° C | 78% | 1021 hPa | - | - | - | - |
| 1778247490 | 16.11° C | 78% | 1021.1 hPa | - | - | - | - |
| 1778247347 | 16.11° C | 78% | 1021.1 hPa | - | - | - | - |
| 1778246447 | 16.11° C | 78% | 1021.2 hPa | - | - | - | - |
| 1778245548 | 15.56° C | 77% | 1021.3 hPa | - | - | - | - |
| 1778245234 | 15.56° C | 77% | 1021.3 hPa | - | - | - | - |
| 1778244336 | 15.56° C | 73% | 1021.4 hPa | - | - | - | - |
| 1778243437 | 15.56° C | 78% | 1021.4 hPa | - | - | - | - |
| 1778242537 | 15.56° C | 81% | 1021.6 hPa | - | - | - | - |
| 1778241635 | 15° C | 82% | 1021.6 hPa | - | - | - | - |
| 1778240736 | 14.44° C | 82% | 1021.7 hPa | - | - | - | - |
| 1778239837 | 14.44° C | 83% | 1021.7 hPa | - | - | - | - |
| 1778238938 | 14.44° C | 83% | 1021.7 hPa | - | - | - | - |
| 1778238039 | 14.44° C | 82% | 1021.8 hPa | - | - | - | - |
| 1778237140 | 14.44° C | 81% | 1021.7 hPa | - | - | - | - |
| 1778236242 | 13.89° C | 81% | 1021.9 hPa | - | - | - | - |
| 1778235343 | 14.44° C | 85% | 1021.8 hPa | - | - | - | - |
* Rain since midnight (hover to see other rain measurements)
** Current wind speed in m/s (hover to see current wind gust speed)